Powrót do katalogu

FENGYUN 3A

AktywnyPogodaSSO
NORAD 32958·PAYLOAD·🇨🇳 China

Wystrzelony May 27, 2008 z Taiyuan Satellite Launch Center

Loading…

Następne Przeloty (najbliższe 24 godziny)

TLE

ŚwieżeSource: Space-Track

Epoka: Sep 14, 2026, 13:27 UTC

1 32958U 08026A   26257.56087487  .00000050  00000-0  44287-4 0  9994
2 32958  98.6932 196.7383 0007813 226.2087 133.8444 14.19586746948086

Śledź FENGYUN 3A w czasie rzeczywistym z AllMySat

Download on the App Store